Louisa, VA

10:04 PM EST on December 05, 2016 (GMT -0500)
Louisa County-Freeman

Weather History for KLKU - September, 2013

Change the Weather History Date:

Monday, September 16, 2013

  Actual Average (KCHO) Record (KCHO)
Temperature  
Mean Temperature 63 °F 67 °F  
Max Temperature 73 °F 78 °F 96 °F (1998)
Min Temperature 53 °F 56 °F 40 °F (2001)
Degree Days  
Heating Degree Days 2 2  
Month to date heating degree days 9  
Since 1 July heating degree days 12  
Cooling Degree Days 0 3  
Month to date cooling degree days 81  
Year to date cooling degree days 991  
Growing Degree Days 13 (Base 50)    
Moisture  
Dew Point 59 °F    
Average Humidity 82    
Maximum Humidity 100    
Minimum Humidity 60    
Precipitation  
Precipitation 0.01 in 0.19 in 1.26 in (1999)
Month to date precipitation 1.94  
Year to date precipitation 30.08  
Sea Level Pressure  
Sea Level Pressure 30.13 in    
Wind  
Wind Speed 3 mph (NNW)    
Max Wind Speed 10 mph    
Max Gust Speed 16 mph    
Visibility 10 miles    
Events Rain    
T = Trace of Precipitation, MM = Missing Value Source: NWS Daily Summary

Daily Weather History Graph

Daily Weather History Graph

Search for Another Location

Airport or City:

Trip Planner

Search our weather history database for the weather conditions in past years. The results will help you decide how hot, cold, wet, or windy it might be!

Date:

Astronomy

Sep. 16, 2013 Rise Set
Actual Time 6:54 AM EDT 7:17 PM EDT
Civil Twilight 6:28 AM EDT 7:44 PM EDT
Nautical Twilight 5:57 AM EDT 8:15 PM EDT
Astronomical Twilight 5:25 AM EDT 8:46 PM EDT
Moon 5:23 PM EDT (9/16) 3:41 AM EDT (9/16)
Length of Visible Light 13h 15m
Length of Day
12h 23m
Waxing Gibbous, 90% of the Moon is Illuminated
Sep 16
Waxing Gibbous
Sep 19
Full
Sep 26
Last Quarter
Oct 4
New
Oct 11
First Quarter

Hourly Weather History & Observations

Time (EDT) Temp. Dew Point Humidity Pressure Visibility Wind Dir Wind Speed Gust Speed Precip Events Conditions
12:15 AM 62.6 °F 57.2 °F 82% 30.11 in 10.0 mi Calm Calm - N/A   Clear
12:35 AM 62.6 °F 57.2 °F 82% 30.11 in 10.0 mi Calm Calm - N/A   Clear
12:55 AM 62.6 °F 57.2 °F 82% 30.11 in 10.0 mi Calm Calm - N/A   Clear
1:15 AM 62.6 °F 57.2 °F 82% 30.11 in 10.0 mi Calm Calm - N/A   Scattered Clouds
1:35 AM 62.6 °F 57.2 °F 82% 30.11 in 10.0 mi Calm Calm - N/A   Scattered Clouds
1:55 AM 62.6 °F 57.2 °F 82% 30.11 in 10.0 mi Calm Calm - N/A   Clear
2:15 AM 62.6 °F 57.2 °F 82% 30.11 in 10.0 mi Calm Calm - N/A   Scattered Clouds
2:35 AM 62.6 °F 59.0 °F 88% 30.10 in 10.0 mi Calm Calm - N/A   Scattered Clouds
2:55 AM 62.6 °F 57.2 °F 82% 30.10 in 10.0 mi Calm Calm - N/A   Mostly Cloudy
3:15 AM 62.6 °F 59.0 °F 88% 30.09 in 10.0 mi Calm Calm - N/A   Scattered Clouds
3:35 AM 62.6 °F 59.0 °F 88% 30.09 in 10.0 mi Calm Calm - N/A   Scattered Clouds
3:55 AM 62.6 °F 59.0 °F 88% 30.09 in 10.0 mi SSW 3.5 mph - N/A   Mostly Cloudy
4:15 AM 62.6 °F 59.0 °F 88% 30.08 in 10.0 mi South 3.5 mph - N/A   Mostly Cloudy
4:35 AM 62.6 °F 59.0 °F 88% 30.08 in 10.0 mi SW 3.5 mph - N/A   Scattered Clouds
4:55 AM 62.6 °F 59.0 °F 88% 30.07 in 10.0 mi Calm Calm - N/A   Scattered Clouds
5:15 AM 62.6 °F 59.0 °F 88% 30.07 in 10.0 mi Calm Calm - N/A   Scattered Clouds
5:35 AM 62.6 °F 59.0 °F 88% 30.07 in 10.0 mi SSW 3.5 mph - N/A   Mostly Cloudy
5:55 AM 62.6 °F 59.0 °F 88% 30.07 in 10.0 mi SW 3.5 mph - N/A   Scattered Clouds
6:15 AM 62.6 °F 59.0 °F 88% 30.07 in 10.0 mi WSW 3.5 mph - N/A   Clear
6:35 AM 60.8 °F 59.0 °F 94% 30.07 in 10.0 mi WSW 4.6 mph - N/A   Clear
6:55 AM 62.6 °F 59.0 °F 88% 30.08 in 10.0 mi SSW 3.5 mph - N/A   Clear
7:15 AM 62.6 °F 59.0 °F 88% 30.08 in 10.0 mi Calm Calm - N/A   Clear
7:35 AM 62.6 °F 59.0 °F 88% 30.08 in 10.0 mi Calm Calm - N/A   Clear
7:55 AM 62.6 °F 60.8 °F 94% 30.07 in 10.0 mi Calm Calm - N/A   Clear
8:15 AM 62.6 °F 60.8 °F 94% 30.08 in 10.0 mi WSW 3.5 mph - N/A   Clear
8:35 AM 64.4 °F 60.8 °F 88% 30.09 in 10.0 mi WSW 3.5 mph - N/A   Clear
8:55 AM 64.4 °F 60.8 °F 88% 30.08 in 10.0 mi SW 3.5 mph - N/A   Clear
9:15 AM 66.2 °F 62.6 °F 88% 30.09 in 10.0 mi WSW 4.6 mph - N/A   Scattered Clouds
9:35 AM 66.2 °F 62.6 °F 88% 30.09 in 10.0 mi West 3.5 mph - N/A   Scattered Clouds
9:55 AM 69.8 °F 62.6 °F 78% 30.11 in 10.0 mi North 8.1 mph - N/A   Mostly Cloudy
10:15 AM 69.8 °F 62.6 °F 78% 30.11 in 10.0 mi North 6.9 mph - N/A   Mostly Cloudy
10:35 AM 68.0 °F 62.6 °F 83% 30.12 in 10.0 mi North 6.9 mph - N/A   Light Drizzle
10:55 AM 68.0 °F 60.8 °F 78% 30.13 in 10.0 mi North 6.9 mph - N/A   Overcast
11:15 AM 66.2 °F 60.8 °F 83% 30.13 in 10.0 mi North 6.9 mph - N/A Rain Light Rain
11:35 AM 66.2 °F 60.8 °F 83% 30.13 in 10.0 mi NNE 9.2 mph 16.1 mph N/A   Overcast
11:55 AM 66.2 °F 60.8 °F 83% 30.13 in 10.0 mi NNE 8.1 mph - N/A   Overcast
12:15 PM 66.2 °F 60.8 °F 83% 30.13 in 10.0 mi North 6.9 mph - N/A   Overcast
12:35 PM 66.2 °F 60.8 °F 83% 30.13 in 10.0 mi NNE 5.8 mph - N/A Rain Light Rain
12:55 PM 64.4 °F 62.6 °F 94% 30.14 in 10.0 mi NNE 6.9 mph - 0.01 in Rain Rain
1:15 PM 64.4 °F 60.8 °F 88% 30.13 in 10.0 mi North 4.6 mph - N/A Rain Light Rain
1:35 PM 66.2 °F 62.6 °F 88% 30.13 in 10.0 mi NNE 4.6 mph - N/A   Overcast
1:55 PM 66.2 °F 60.8 °F 83% 30.13 in 10.0 mi North 4.6 mph - N/A   Overcast
2:15 PM 66.2 °F 60.8 °F 83% 30.13 in 10.0 mi NNE 4.6 mph - N/A   Overcast
2:35 PM 66.2 °F 60.8 °F 83% 30.13 in 10.0 mi NNE 4.6 mph - N/A   Overcast
2:55 PM 66.2 °F 60.8 °F 83% 30.13 in 10.0 mi North 5.8 mph - N/A   Overcast
3:15 PM 68.0 °F 60.8 °F 78% 30.12 in 10.0 mi North 4.6 mph - N/A   Overcast
3:35 PM 69.8 °F 60.8 °F 73% 30.12 in 10.0 mi NNW 5.8 mph - N/A   Overcast
3:55 PM 69.8 °F 62.6 °F 78% 30.12 in 10.0 mi NW 4.6 mph - N/A   Overcast
4:15 PM 73.4 °F 62.6 °F 69% 30.11 in 10.0 mi NW 4.6 mph - N/A   Overcast
4:35 PM 73.4 °F 62.6 °F 69% 30.12 in 10.0 mi NNW 6.9 mph - N/A   Overcast
4:55 PM 73.4 °F 60.8 °F 65% 30.12 in 10.0 mi NNW 10.4 mph 16.1 mph N/A   Mostly Cloudy
5:15 PM 71.6 °F 59.0 °F 64% 30.13 in 10.0 mi North 9.2 mph 16.1 mph N/A   Mostly Cloudy
5:35 PM 71.6 °F 57.2 °F 60% 30.14 in 10.0 mi North 5.8 mph - N/A   Scattered Clouds
5:55 PM 69.8 °F 57.2 °F 64% 30.14 in 10.0 mi North 5.8 mph - N/A   Mostly Cloudy
6:15 PM 69.8 °F 57.2 °F 64% 30.15 in 10.0 mi NNE 4.6 mph - N/A   Mostly Cloudy
6:35 PM 69.8 °F 57.2 °F 64% 30.16 in 10.0 mi North 4.6 mph - N/A   Scattered Clouds
6:55 PM 68.0 °F 55.4 °F 64% 30.16 in 10.0 mi North 6.9 mph - N/A   Scattered Clouds
7:15 PM 66.2 °F 55.4 °F 68% 30.16 in 10.0 mi Calm Calm - N/A   Clear
7:35 PM 60.8 °F 57.2 °F 88% 30.16 in 10.0 mi Calm Calm - N/A   Clear
7:55 PM 62.6 °F 55.4 °F 77% 30.17 in 10.0 mi NNW 3.5 mph - N/A   Clear
8:15 PM 62.6 °F 55.4 °F 77% 30.17 in 10.0 mi NNW 5.8 mph - N/A   Clear
8:35 PM 62.6 °F 55.4 °F 77% 30.19 in 10.0 mi NNW 5.8 mph - N/A   Clear
8:55 PM 62.6 °F 55.4 °F 77% 30.19 in 10.0 mi NNW 3.5 mph - N/A   Clear
9:15 PM 60.8 °F 55.4 °F 82% 30.20 in 10.0 mi NW 3.5 mph - N/A   Clear
9:35 PM 62.6 °F 55.4 °F 77% 30.20 in 10.0 mi NNW 3.5 mph - N/A   Clear
9:55 PM 60.8 °F 55.4 °F 82% 30.21 in 10.0 mi NNW 4.6 mph - N/A   Clear
10:15 PM 60.8 °F 55.4 °F 82% 30.21 in 10.0 mi Calm Calm - N/A   Clear
10:35 PM 59.0 °F 55.4 °F 88% 30.22 in 10.0 mi NNW 3.5 mph - N/A   Clear
10:55 PM 57.2 °F 55.4 °F 94% 30.22 in 10.0 mi Calm Calm - N/A   Clear
11:15 PM 53.6 °F 51.8 °F 94% 30.22 in 5.0 mi Calm Calm - N/A   Clear
11:35 PM 53.6 °F 53.6 °F 100% 30.22 in 4.0 mi Calm Calm - N/A   Clear
11:55 PM 53.6 °F 51.8 °F 94% 30.23 in 4.0 mi Calm Calm - N/A   Clear